Wind_Speed
8 8 8 8 7 7 7 7 7 8 8 8 8 8 8 8 9 10 11 11 12 12 13 13 14 14 14 14 14 14 14 15 15 16 16 17 18 18 18 18 18 18 18 18 18 18 18 18 18 18 18 18 19 19 19 19 20 20 20 20 20 20 21 20 20 21 21 21 21 22 22 22 22 22 22 23 23 23 23 24 24 24 25 25 25 25
8 8 8 8 8 7 7 7 8 8 8 8 8 8 8 9 10 10 11 11 12 12 12 13 13 13 14 14 14 14 14 14 15 16 17 17 18 18 18 19 18 18 18 18 18 18 18 17 17 17 18 18 18 19 19 19 19 20 20 20 20 20 20 20 20 20 21 21 22 22 22 22 22 23 23 23 23 23 24 24 24 24 25 25 25 25
7 6 6 6 7 7 7 7 7 8 8 8 8 9 9 10 10 11 10 10 11 11 11 12 12 13 13 14 14 14 14 15 16 16 17 18 18 19 19 19 19 18 18 18 17 17 17 17 17 17 17 18 18 18 19 19 19 20 20 20 20 20 20 20 20 21 21 22 22 22 22 22 23 23 23 23 24 24 24 24 24 24 25 25 25 25
6 6 6 6 6 7 7 7 7 7 8 8 9 9 10 10 10 10 10 10 10 11 11 12 12 12 13 14 14 15 15 16 16 17 18 18 19 19 19 19 18 18 17 17 17 16 16 16 16 17 17 18 18 19 19 19 20 20 20 20 21 21 21 21 21 21 21 22 22 22 23 23 23 23 23 23 23 24 24 24 24 24 25 25 25 25
6 5 6 5 6 6 6 6 6 6 7 8 9 9 9 10 10 10 10 10 11 11 11 11 11 12 13 14 15 16 16 16 17 18 18 19 19 19 18 18 18 17 17 16 16 16 16 16 17 17 18 18 19 19 20 20 20 20 20 21 21 21 21 21 21 21 21 22 22 22 22 22 22 22 23 23 23 23 24 24 24 24 25 25 25 25
4 4 5 5 5 5 5 5 6 6 7 8 8 8 8 9 9 10 10 10 10 11 11 11 12 13 14 15 15 16 16 17 17 18 18 18 18 18 17 17 17 16 16 16 16 17 17 17 18 18 18 19 19 20 20 20 20 21 21 21 21 21 21 21 21 21 21 21 21 21 21 22 22 22 22 23 23 23 23 24 24 24 24 25 25 25
3 4 4 4 5 5 5 6 7 7 7 7 7 7 8 8 9 9 10 10 10 11 11 12 13 13 14 14 15 15 16 16 16 16 16 16 16 16 16 16 15 16 16 16 17 17 18 18 18 19 19 19 20 20 20 20 21 21 21 21 21 21 21 21 21 21 20 20 21 21 21 21 21 21 22 22 22 23 23 23 23 24 24 24 25 25
3 3 4 4 4 5 6 6 6 6 6 6 6 7 8 9 9 9 10 10 11 11 12 12 12 13 13 13 14 14 15 15 15 15 15 15 14 14 15 15 15 16 16 17 17 18 18 19 19 20 20 20 20 20 21 21 21 21 21 20 20 20 20 20 20 20 19 19 19 20 20 20 20 21 21 21 22 22 22 23 23 23 24 24 24 25
4 4 4 5 5 5 5 5 5 5 5 6 7 8 9 9 9 9 10 10 10 10 10 11 12 12 13 13 14 14 14 14 14 14 14 15 15 15 15 15 16 16 17 17 18 18 19 19 20 20 20 21 21 21 21 21 20 20 20 20 20 19 19 19 19 19 18 18 19 19 19 19 20 20 21 21 22 22 22 23 23 23 24 24 24 25
5 5 5 5 5 5 5 5 6 6 6 7 8 8 9 9 9 9 9 9 9 9 9 10 11 13 14 14 14 14 14 14 14 14 14 15 15 15 15 16 16 17 17 17 18 18 19 19 20 20 20 20 20 20 20 20 20 20 19 19 19 19 18 18 18 18 18 18 18 19 19 19 20 20 21 21 22 22 23 23 23 24 24 24 25 25
5 5 5 5 5 5 5 5 6 6 7 8 8 8 8 8 8 8 9 9 9 9 9 10 12 13 14 14 14 14 14 14 14 14 14 14 14 14 14 15 15 16 16 17 17 18 18 19 19 19 20 20 20 20 19 19 19 19 19 18 18 18 17 17 17 17 17 18 18 19 19 20 20 21 21 22 22 23 23 23 24 24 25 25 25 25
5 4 4 4 4 4 4 5 6 7 7 7 7 7 7 7 6 7 8 9 10 11 11 11 12 12 13 13 14 14 14 14 14 13 13 13 13 13 13 14 14 15 16 16 17 17 18 18 18 19 19 19 19 19 19 19 18 18 18 17 17 17 17 17 17 18 18 19 19 20 20 21 21 22 22 22 23 23 23 24 24 24 25 25 25 26
4 4 4 3 3 4 4 5 6 6 6 6 6 6 6 5 6 7 8 10 11 11 12 12 12 12 12 13 13 14 14 13 13 13 13 12 12 13 13 14 14 15 16 17 17 18 18 18 18 18 19 19 19 18 18 18 17 17 17 16 17 17 17 18 18 19 19 20 20 21 21 22 22 22 22 23 23 23 24 24 24 24 25 25 25 26
4 4 3 3 3 4 5 6 6 6 6 5 5 5 6 7 7 8 9 10 10 10 11 11 12 12 12 12 13 13 13 13 13 13 12 12 12 13 14 14 15 16 17 18 18 19 19 18 18 19 19 18 18 17 17 16 16 16 16 17 17 18 19 19 20 20 21 21 21 22 22 22 22 22 23 23 23 24 24 24 24 25 25 25 25 25
4 3 3 3 4 5 5 6 6 6 5 5 6 6 7 8 8 8 9 9 9 10 10 11 12 13 12 12 11 11 11 12 12 12 13 13 13 14 15 16 17 17 18 18 19 19 19 19 19 19 18 18 18 17 17 17 17 17 18 18 19 20 20 21 21 21 22 22 22 22 22 22 23 23 23 23 24 24 24 24 25 25 26 26 26 26
3 3 4 4 5 5 5 5 5 6 6 7 7 7 7 7 7 7 8 8 9 10 10 11 12 12 12 11 10 10 10 11 11 12 13 14 14 15 16 17 17 18 19 19 19 19 19 19 19 19 18 18 18 17 17 18 18 19 20 21 21 21 22 22 22 22 22 22 22 23 23 23 23 23 23 24 24 24 24 25 25 25 26 26 27 27
4 4 4 5 5 6 6 6 6 7 7 7 7 6 6 6 6 7 7 8 9 9 10 10 10 9 9 10 10 9 9 10 11 13 14 16 16 16 17 17 17 18 19 19 19 19 19 19 18 18 18 18 18 18 19 20 21 21 22 22 22 22 22 22 22 22 23 23 23 23 23 24 24 24 24 24 24 25 25 25 25 26 26 27 27 27
4 4 4 5 6 6 7 7 7 7 6 6 6 6 6 6 6 7 8 8 9 9 10 10 10 9 9 10 10 10 10 11 13 14 16 17 18 18 17 17 17 18 19 19 19 19 19 19 19 19 19 19 20 20 21 22 22 22 22 22 22 22 23 23 23 23 24 24 24 24 24 24 24 24 24 24 25 25 25 25 25 26 26 27 27 27
4 4 5 6 6 7 7 7 6 6 5 5 5 5 6 7 8 8 9 9 10 10 10 11 11 11 11 12 12 13 12 13 14 15 16 18 19 19 17 16 16 18 19 19 19 19 19 19 20 20 20 20 21 21 22 22 22 22 22 22 23 23 23 24 24 24 24 24 24 24 24 24 24 24 24 25 25 25 25 25 25 26 26 27 27 27
5 5 6 6 7 7 7 6 5 4 4 5 5 6 7 8 9 9 10 10 10 11 11 12 12 12 13 14 14 14 13 14 14 16 17 18 19 19 17 16 16 17 18 19 19 18 18 19 20 20 20 21 21 21 21 22 22 23 23 24 24 24 24 24 24 24 24 24 24 24 24 24 24 24 24 25 25 25 25 25 25 26 26 27 27 27
6 6 6 6 6 6 6 5 4 4 5 6 6 7 8 9 9 10 10 10 11 11 11 12 12 13 13 14 14 15 15 15 15 15 16 17 18 18 16 15 15 17 18 19 19 18 19 19 20 20 20 20 21 21 22 23 23 24 24 24 25 25 25 25 24 24 24 24 24 24 24 24 24 25 25 25 25 25 25 25 25 26 26 27 27 28
7 7 7 6 6 6 6 6 6 6 6 7 7 8 8 9 10 10 10 10 11 11 12 12 13 14 14 15 16 17 16 15 15 15 15 16 17 18 16 14 14 16 18 19 19 19 19 19 20 20 21 21 22 23 23 24 24 25 25 25 25 25 25 25 25 24 24 24 24 24 24 25 25 25 25 25 25 25 26 26 26 26 26 26 27 27
7 8 8 7 7 7 7 8 8 8 8 8 8 9 10 10 11 11 11 11 11 12 13 14 15 15 16 17 18 18 17 15 15 14 14 13 15 17 15 14 14 16 18 19 19 19 19 20 20 21 21 22 23 23 24 24 25 25 25 25 25 25 25 24 24 24 24 24 24 25 25 25 25 25 25 25 26 26 26 26 26 26 26 26 26 27
7 7 7 7 8 8 9 9 9 9 9 9 9 10 11 12 12 13 13 12 12 13 14 15 16 17 17 17 17 16 15 14 13 13 13 13 15 16 16 14 15 16 18 18 19 19 20 21 21 22 22 23 23 24 24 24 25 25 25 24 24 24 24 24 24 24 24 25 25 25 25 25 26 26 26 26 26 26 26 26 26 26 26 26 26 26
7 7 7 8 8 9 9 9 9 9 10 11 11 11 11 11 11 11 12 12 13 14 14 15 15 16 16 15 14 14 13 11 11 11 12 13 15 16 16 15 15 16 18 19 19 19 20 21 22 22 22 23 24 24 24 24 24 24 24 24 24 24 24 24 24 24 25 25 25 26 26 26 26 26 26 26 26 26 26 26 25 26 26 26 26 26
9 9 9 9 10 10 10 10 10 11 11 12 12 11 11 11 12 13 13 13 13 13 14 14 14 14 14 13 13 12 11 11 10 11 12 12 14 16 16 15 15 16 18 19 20 20 20 21 22 23 23 24 24 24 24 23 23 22 23 23 23 23 24 24 24 25 25 25 26 26 26 26 26 25 25 25 25 25 25 25 25 25 26 26 26 26
9 10 10 11 11 11 12 12 12 13 13 13 13 12 12 12 13 13 14 13 13 12 12 12 12 13 13 12 12 12 11 10 10 11 12 13 14 15 16 15 14 15 18 19 20 20 21 22 23 24 24 24 24 23 22 21 21 21 22 23 23 24 24 24 24 25 25 25 25 25 25 25 25 25 25 25 25 25 25 25 25 26 26 26 26 26
8 8 9 10 11 11 12 13 13 14 14 14 14 14 13 13 13 13 14 13 12 12 12 12 11 11 10 11 12 12 12 12 12 12 12 13 13 14 15 14 14 15 17 19 21 21 21 22 22 22 23 22 22 21 21 20 21 21 22 23 24 24 24 24 24 24 24 24 24 25 25 25 25 25 25 25 25 25 25 25 25 25 25 25 24 24
7 8 8 9 10 11 12 13 13 13 13 13 13 13 13 13 13 14 14 13 12 11 12 12 12 11 11 12 13 14 14 14 14 13 12 12 12 13 14 14 14 15 16 18 20 22 21 20 20 20 20 20 19 19 20 21 22 23 24 24 24 24 23 23 23 23 23 24 24 24 25 25 25 25 25 25 25 25 25 25 25 25 24 23 22 22
7 8 8 9 10 10 11 11 11 12 12 12 12 12 12 13 13 14 13 12 11 11 12 12 12 12 11 12 11 11 11 11 10 8 8 9 11 12 13 13 14 15 15 15 15 15 18 19 18 17 17 18 19 20 21 22 23 23 24 24 24 23 23 22 22 23 23 24 24 24 24 24 25 25 25 25 25 25 25 25 24 24 23 22 22 22
9 9 9 9 10 10 10 10 10 10 10 10 10 11 11 11 12 12 12 11 11 11 11 11 12 12 11 10 7 5 5 7 6 5 6 8 10 12 13 14 15 15 14 13 9 7 10 16 18 17 17 18 20 22 23 23 22 22 23 23 23 23 23 22 22 23 23 23 23 23 23 23 24 24 24 24 24 24 24 24 23 23 22 22 21 21
9 9 10 10 10 10 9 9 9 9 9 9 9 9 9 9 10 10 10 10 11 11 11 11 12 12 12 11 9 8 9 10 9 8 8 10 12 13 14 14 15 15 15 13 11 8 6 11 17 21 21 21 22 23 23 22 22 22 22 23 23 24 23 22 22 22 22 22 22 22 23 23 23 23 23 24 24 24 24 23 23 22 22 21 21 21
9 9 9 9 9 9 9 9 8 8 8 7 7 7 7 8 8 9 9 10 10 11 11 11 12 12 12 13 14 14 15 15 13 11 11 11 12 13 14 14 14 15 15 15 15 14 12 14 19 23 24 24 23 22 22 22 21 21 22 22 23 23 23 22 22 22 22 22 22 22 23 23 23 23 23 23 23 23 23 22 22 21 21 21 21 21
9 9 9 9 9 8 8 8 7 7 7 7 7 7 7 7 8 8 9 9 10 11 11 12 12 12 12 13 14 15 16 15 13 11 10 11 12 12 14 14 15 15 16 16 16 16 17 19 20 21 22 24 23 22 22 21 21 21 21 21 22 23 23 23 22 22 23 23 23 23 23 23 23 23 22 22 22 22 21 21 21 21 21 21 21 21
9 8 8 8 8 7 7 7 6 6 6 6 7 7 7 7 8 8 9 10 10 11 12 12 13 13 13 13 14 15 15 15 13 11 10 11 12 13 15 15 15 15 15 15 15 15 16 18 20 20 20 22 23 23 22 20 20 21 21 21 22 22 23 23 23 24 24 24 24 24 23 23 23 23 22 22 21 21 21 22 22 22 22 22 23 23
8 8 8 7 7 6 6 6 6 6 6 6 7 7 7 7 8 9 9 10 11 11 12 13 14 14 15 15 16 16 17 16 14 13 12 12 13 14 15 16 15 15 15 16 16 16 16 18 20 21 20 20 21 22 22 21 20 21 21 22 22 23 23 24 24 24 24 24 24 24 23 23 23 23 23 22 22 22 23 23 23 23 23 23 23 24
8 7 7 7 6 6 6 6 6 6 6 7 7 7 7 8 8 9 10 11 11 12 13 14 15 16 16 17 18 19 20 19 18 17 16 15 16 17 17 18 18 17 16 16 17 17 17 18 19 20 19 19 18 19 21 22 23 23 23 23 24 24 25 24 24 24 24 24 24 24 23 23 23 23 23 23 23 23 24 23 23 23 23 23 23 23
7 7 7 6 6 6 6 6 6 6 6 7 7 8 8 9 9 10 11 12 13 14 14 15 16 16 17 18 20 21 22 22 22 21 21 20 20 20 20 20 20 19 18 17 18 18 17 17 16 15 17 19 20 21 22 23 23 24 25 25 25 25 25 25 24 23 23 23 23 24 24 24 24 24 24 24 24 23 23 23 23 23 22 22 22 23
7 6 7 6 6 6 6 6 6 7 7 7 8 8 9 10 10 11 12 12 13 13 14 15 16 16 17 19 20 21 22 23 24 24 24 24 24 23 23 22 21 21 20 20 19 19 18 18 17 16 16 18 21 22 23 23 23 24 25 26 27 27 26 24 23 23 23 23 24 24 24 24 24 24 24 23 23 23 23 23 23 22 22 22 22 22
7 7 7 7 6 6 6 6 7 7 8 8 9 9 10 10 10 11 11 12 12 13 13 14 15 16 17 18 19 20 21 22 23 24 24 25 24 24 23 23 22 22 21 21 20 20 19 19 20 21 20 20 21 22 23 24 24 24 24 24 25 26 26 25 25 25 25 25 24 24 24 24 23 23 23 22 22 22 22 23 23 22 22 21 21 22
7 7 7 7 7 6 6 7 7 8 8 9 9 10 10 10 10 10 11 11 11 12 12 13 14 15 16 17 18 19 19 21 21 22 23 23 24 24 24 24 23 23 22 21 21 20 20 20 21 21 22 22 22 23 24 25 25 24 23 23 24 27 28 28 27 26 25 24 24 23 23 23 23 23 23 23 24 24 24 24 24 24 23 23 22 22
7 7 7 7 7 7 7 7 8 8 9 9 9 9 9 9 9 10 10 10 11 11 11 11 12 14 15 16 17 17 18 19 19 20 21 22 22 23 24 24 24 23 23 22 21 21 21 21 21 21 22 22 22 22 24 25 25 25 23 24 25 27 28 28 27 24 23 23 23 23 23 24 25 25 25 25 25 25 24 24 24 24 23 23 23 23
8 7 7 7 7 8 8 8 8 8 9 9 9 9 9 9 10 10 10 11 11 11 11 12 12 13 15 16 16 16 16 17 17 18 18 19 20 21 22 23 23 23 23 22 22 22 22 22 21 21 22 21 21 22 24 25 26 25 25 24 24 24 22 25 26 25 24 24 25 25 25 25 26 26 26 25 25 25 24 24 24 24 24 24 24 24
8 7 7 7 8 8 8 8 8 8 8 9 10 10 10 10 10 10 11 11 12 12 12 12 12 13 14 15 16 16 16 16 15 16 16 17 18 19 20 21 22 23 23 23 22 22 22 22 22 22 21 21 21 22 24 25 25 25 25 25 24 23 23 25 27 27 27 26 26 26 26 26 26 26 26 25 25 24 24 24 24 24 24 25 24 25
8 8 8 8 8 8 8 8 8 9 9 10 10 11 10 10 10 10 11 11 12 12 12 12 12 13 14 15 15 15 16 16 15 15 15 16 16 17 18 20 21 21 22 23 23 23 22 22 22 23 22 22 22 22 23 24 25 25 26 26 25 25 26 28 28 27 27 27 26 26 26 26 25 25 25 25 24 24 24 23 24 24 24 25 25 25
7 7 8 8 8 8 8 9 9 10 10 10 11 11 11 11 11 11 11 11 12 12 12 12 12 13 13 15 15 15 16 16 16 16 15 15 15 16 17 18 19 20 21 22 23 23 23 23 23 23 22 22 23 23 24 24 24 24 25 26 25 25 26 27 27 26 26 26 26 26 26 26 25 24 24 24 24 24 24 24 23 24 24 24 25 25
7 8 8 8 8 8 9 9 10 10 10 11 11 11 11 11 11 11 12 12 12 12 13 13 13 13 14 15 15 15 16 17 17 17 16 16 16 16 16 17 17 18 20 21 22 23 23 24 25 24 23 23 23 24 25 25 24 24 24 25 25 25 25 26 26 26 26 26 26 27 27 26 25 24 24 24 24 25 24 24 23 23 24 24 24 25
8 8 8 8 9 9 9 10 10 10 11 11 11 11 11 11 11 11 12 12 12 12 13 13 13 14 15 15 16 16 16 17 17 18 17 17 17 16 16 16 17 17 18 19 20 21 23 24 25 26 25 24 24 24 26 26 25 24 24 24 24 24 25 26 26 26 26 26 26 27 26 25 23 23 23 24 24 24 25 25 24 23 23 23 24 25
8 8 8 9 9 9 10 10 10 11 11 11 12 12 12 11 11 12 12 13 13 13 13 13 14 14 15 15 16 16 16 17 18 18 18 17 17 17 17 17 17 17 18 19 19 20 22 23 24 25 25 25 26 26 26 26 26 25 24 24 23 24 24 25 26 26 25 25 26 26 26 24 23 22 22 23 24 25 26 26 25 24 23 23 23 24
8 8 8 9 9 9 10 10 10 11 11 12 12 12 13 13 13 13 13 13 13 13 13 14 14 15 15 16 16 16 17 17 17 18 18 18 18 17 17 17 17 18 18 18 19 19 20 21 22 22 23 24 25 26 27 27 27 26 24 24 23 23 23 24 25 25 25 25 25 25 25 25 24 24 23 23 23 25 26 26 25 24 23 22 22 22
8 8 8 9 9 10 10 10 11 11 11 12 13 13 14 14 14 14 13 13 13 13 14 14 15 15 16 17 17 17 17 17 17 18 18 18 18 17 17 17 17 17 17 17 17 17 16 16 16 18 21 21 21 22 24 25 25 25 24 24 23 23 23 24 24 25 25 25 25 25 25 24 24 23 22 22 22 23 24 25 26 25 23 22 21 22
Wind_Direction
158 166 176 184 191 202 214 222 230 238 244 249 252 255 258 258 261 266 271 275 278 281 283 285 287 289 289 290 290 289 288 287 287 287 287 287 287 287 287 287 287 287 287 287 286 285 284 283 283 283 283 283 282 282 281 281 280 280 281 281 281 281 282 282 281 281 280 281 281 281 281 281 281 281 281 282 282 281 281 281 281 280 280 280 280 280
171 177 187 196 201 209 220 226 230 236 242 247 251 255 257 261 266 271 275 277 279 281 284 286 288 290 290 291 292 291 290 288 288 287 287 287 287 286 286 286 286 287 287 287 287 287 285 284 284 283 283 283 282 282 281 281 280 280 280 281 281 281 282 282 283 282 280 280 280 280 281 281 280 280 281 281 281 280 280 280 280 280 281 280 281 280
174 183 195 204 209 214 223 229 232 235 241 246 251 256 261 267 272 275 277 279 280 282 284 287 290 291 292 293 292 292 290 289 288 288 287 287 287 286 286 287 287 287 288 288 287 287 287 286 285 284 283 283 283 282 282 281 281 281 281 281 281 281 282 282 283 283 281 279 279 279 280 280 279 279 279 279 280 280 280 280 280 280 280 280 280 280
167 178 190 199 207 215 222 229 234 237 241 246 252 259 265 270 273 276 278 280 282 284 286 288 289 291 291 292 292 291 291 290 290 289 288 288 288 287 287 287 288 288 289 289 288 288 287 286 285 285 284 284 283 282 282 282 281 281 281 281 281 281 282 282 283 283 282 281 280 280 279 279 280 280 280 280 280 281 281 281 280 280 280 279 279 279
169 181 190 196 204 213 222 229 235 240 245 252 257 262 266 270 273 276 280 283 284 286 288 288 289 289 291 291 292 292 292 292 291 290 289 289 289 288 288 289 289 289 289 290 289 289 288 287 286 286 285 284 283 283 282 282 282 281 281 281 281 281 282 282 282 282 282 282 282 282 281 281 281 281 281 280 280 280 280 280 280 279 279 279 279 278
181 191 197 202 209 217 226 235 242 248 254 258 261 264 266 270 275 279 282 285 286 287 288 288 289 290 291 291 292 293 293 292 291 290 289 289 289 289 289 289 289 290 290 290 290 289 289 288 287 286 285 285 284 284 283 283 282 282 282 282 282 282 282 282 282 282 282 281 281 281 281 280 280 279 279 279 278 278 278 278 278 278 278 278 278 278
197 204 208 213 220 228 238 245 250 254 257 261 265 269 273 277 280 282 283 285 286 288 289 289 289 290 291 292 293 294 294 293 292 291 290 290 290 290 290 290 290 290 290 290 290 290 290 289 288 287 286 285 284 284 283 283 283 283 282 282 282 282 282 282 282 282 281 281 280 280 279 279 278 278 278 277 277 277 277 277 277 277 278 277 278 277
212 217 218 221 227 236 244 249 250 251 255 263 273 281 284 286 285 284 284 285 286 287 289 290 291 292 292 293 294 295 295 294 294 293 292 291 291 291 291 291 292 292 292 292 291 291 290 289 288 287 286 285 284 284 284 283 283 283 283 283 283 283 283 282 282 282 281 281 280 279 279 278 278 277 277 277 277 277 277 277 277 277 277 277 277 277
218 226 229 228 231 240 249 252 252 251 259 270 279 284 288 289 289 288 288 287 287 288 289 292 294 294 294 295 296 296 296 294 293 293 292 291 291 292 293 293 293 293 293 292 291 290 289 288 287 286 285 284 284 283 283 283 283 284 284 284 284 283 283 283 282 282 281 280 280 279 279 278 277 277 277 277 276 276 276 277 277 276 276 277 277 277
220 226 232 234 238 245 252 258 262 265 269 273 276 278 280 283 286 289 290 289 290 291 292 294 296 297 297 298 298 297 297 295 294 293 291 291 291 292 293 294 294 294 293 293 292 291 289 289 288 287 285 285 284 283 283 284 284 284 284 284 283 283 282 282 282 281 281 280 280 279 279 278 278 278 277 277 277 277 277 276 276 276 276 277 277 277
222 224 227 236 245 252 256 261 269 273 275 274 273 272 270 271 276 284 290 293 296 298 297 296 296 297 298 299 300 300 298 297 297 296 294 293 293 293 294 295 295 295 295 294 293 292 291 290 289 288 287 286 285 284 284 284 284 284 284 283 283 282 282 282 281 281 281 281 281 280 280 280 279 279 278 278 277 277 277 277 277 277 276 277 277 277
223 225 227 238 250 259 265 270 274 274 271 267 265 264 263 264 271 282 291 297 300 301 300 298 295 295 296 298 300 301 300 299 299 299 299 298 298 298 297 298 298 297 297 296 294 293 292 292 291 290 288 287 286 285 285 285 285 284 284 283 283 282 282 282 282 282 283 282 282 282 282 281 281 280 279 279 278 278 278 278 278 278 277 277 277 277
224 228 235 242 250 261 268 274 274 270 262 258 259 265 274 279 287 291 293 293 295 296 298 299 298 298 298 298 299 299 299 299 299 300 300 300 301 301 301 301 300 300 298 297 295 294 294 293 292 291 289 288 287 286 286 285 285 285 284 284 284 284 284 284 284 284 284 284 284 284 283 283 282 282 281 280 279 279 278 278 278 278 278 277 277 277
227 230 234 239 250 259 262 265 267 267 265 266 274 283 291 296 296 294 291 289 290 294 298 300 302 303 303 301 299 298 299 300 301 301 301 301 301 301 302 301 301 299 298 296 294 293 293 293 293 291 290 289 288 287 286 286 286 285 285 285 285 286 286 286 286 286 285 285 285 285 284 284 283 283 282 281 280 280 279 279 278 278 277 277 277 277
231 233 236 245 254 260 263 267 271 276 281 287 291 293 293 291 289 287 286 288 293 300 305 306 305 304 303 301 301 300 301 302 303 303 302 301 300 301 301 301 300 298 296 295 293 292 293 293 292 290 290 289 288 287 287 286 286 287 287 287 287 288 287 287 287 287 286 286 286 286 285 285 284 284 283 282 282 281 281 280 279 279 277 277 277 276
238 240 246 256 263 269 273 281 286 290 290 291 289 288 285 284 284 287 290 297 303 308 311 310 308 306 305 304 304 305 306 306 306 305 304 302 300 300 300 300 299 297 295 293 291 291 293 292 291 290 289 288 288 287 287 287 288 288 288 289 289 289 289 288 288 288 287 287 287 286 286 286 285 284 284 283 283 282 282 281 280 279 278 277 276 276
249 253 259 268 275 279 283 285 286 285 285 285 283 280 280 284 291 297 302 305 308 308 307 307 307 307 306 307 308 310 312 311 310 307 305 302 299 298 298 298 297 295 293 291 290 290 292 291 290 290 289 289 288 288 288 288 289 289 289 289 289 289 290 290 290 289 289 289 288 288 288 287 286 286 285 285 284 283 283 282 281 280 278 277 276 275
256 262 271 276 279 280 281 281 279 279 281 282 285 287 290 295 301 304 305 304 303 302 301 301 299 299 300 302 304 307 312 312 311 307 304 300 297 296 297 297 294 292 290 289 289 290 290 290 289 289 289 289 289 289 289 290 290 290 291 291 291 291 291 291 291 291 290 290 290 289 288 288 287 287 286 285 285 284 283 282 282 281 279 278 277 276
264 267 271 272 273 274 274 274 276 280 285 291 299 303 303 303 303 302 298 296 293 293 294 293 291 290 290 291 294 300 307 310 309 306 301 297 295 295 296 296 293 290 288 287 288 289 290 290 290 290 290 290 290 291 291 291 292 292 293 293 293 293 293 293 292 292 292 291 291 290 289 289 288 287 286 286 285 284 283 283 282 281 280 279 278 277
264 262 262 264 269 272 274 274 277 286 295 301 305 305 303 301 298 295 290 287 286 285 286 285 284 284 285 286 290 296 302 306 306 303 298 294 292 293 295 294 292 289 287 287 287 289 290 291 292 292 292 293 293 293 293 294 294 294 294 295 295 295 294 294 293 293 293 292 291 291 290 289 289 288 287 286 285 285 284 283 282 282 281 280 279 278
269 266 265 269 276 280 281 282 285 291 296 298 301 300 297 294 290 287 284 283 282 281 280 279 279 280 283 286 289 293 298 301 300 297 294 292 290 291 292 292 290 288 287 287 289 291 293 293 293 294 295 295 295 295 295 295 295 296 296 296 296 296 296 295 295 294 293 293 292 291 290 290 289 288 287 287 286 285 284 283 283 282 282 281 280 279
275 275 278 281 284 286 285 283 283 285 287 292 293 292 287 285 283 283 282 281 279 279 278 278 280 282 285 286 287 289 291 291 289 288 289 287 287 288 290 291 290 288 287 289 291 294 295 295 295 295 296 296 296 296 296 296 296 297 297 297 297 297 296 296 295 294 293 292 292 291 290 290 289 289 288 288 287 286 285 285 284 283 283 282 281 280
273 276 280 282 282 279 277 277 277 277 279 281 281 278 275 275 276 277 278 278 279 282 284 285 286 286 285 284 284 285 285 283 280 279 280 280 283 286 291 293 292 289 288 290 294 297 298 298 297 296 297 297 297 297 297 297 297 297 297 297 297 297 296 295 295 294 293 293 292 292 291 291 290 290 289 289 288 287 287 286 285 284 284 283 282 282
275 274 273 273 271 270 270 271 271 272 273 274 274 272 272 274 277 279 281 282 285 286 288 288 287 285 282 281 281 281 281 278 275 273 273 275 280 285 290 293 293 291 289 291 295 298 300 299 298 298 298 297 297 297 297 297 297 297 297 297 297 296 296 296 295 295 294 294 293 292 292 292 291 291 290 290 289 288 287 287 286 285 284 283 283 282
274 272 270 268 267 267 268 268 268 268 271 274 275 275 276 280 284 286 288 287 286 285 285 284 283 281 281 281 281 280 279 277 272 268 269 274 279 283 288 291 292 291 291 294 297 299 300 299 299 298 298 297 297 297 297 297 297 297 297 297 297 297 297 297 296 296 295 294 294 293 293 292 292 291 291 290 289 289 288 287 286 286 285 284 283 282
268 266 266 266 266 266 266 266 266 267 270 272 272 273 276 281 284 284 283 281 280 280 280 279 278 278 280 281 281 281 281 279 273 267 267 274 280 284 287 289 290 290 292 295 298 300 300 299 298 298 297 296 297 297 298 298 298 298 298 298 298 298 298 297 297 296 295 295 294 294 293 292 292 291 291 291 290 289 288 288 287 286 285 284 284 283
276 269 265 264 264 264 265 265 267 268 269 269 269 271 274 277 278 278 275 274 274 274 275 275 276 278 280 281 280 280 281 281 276 271 270 274 279 282 285 288 290 292 294 296 298 299 299 298 297 296 296 295 296 297 298 298 298 298 298 298 298 298 298 298 297 296 296 295 295 294 294 293 292 292 291 291 290 289 289 288 287 287 286 286 285 283
296 284 274 269 267 267 268 267 268 268 268 268 268 268 269 270 270 269 267 268 269 270 269 270 273 277 280 281 281 282 284 282 278 274 272 272 273 275 281 287 292 295 297 299 299 299 297 295 293 293 293 294 295 296 297 298 298 298 299 299 299 299 299 298 298 297 297 296 295 295 294 293 293 292 291 291 290 290 289 289 288 288 288 287 285 284
300 292 286 281 278 277 275 274 272 270 269 268 267 266 265 262 261 261 262 264 266 266 266 266 268 272 277 281 285 286 285 281 277 274 271 268 268 272 281 289 294 298 302 303 303 302 298 295 293 292 292 294 296 297 297 298 299 300 300 301 301 300 299 299 298 298 298 297 296 295 294 294 293 292 291 291 290 290 289 289 289 289 288 287 284 283
289 284 283 282 281 280 278 277 275 272 270 268 267 265 261 257 255 255 258 260 260 260 261 264 266 270 275 283 288 289 285 281 280 279 274 271 272 278 287 293 296 300 304 307 307 304 301 299 296 294 294 295 297 298 299 299 300 300 301 301 301 300 300 300 299 299 299 298 297 296 295 294 293 292 292 291 291 290 290 290 290 289 288 286 284 282
286 284 282 280 279 279 277 275 272 270 268 267 266 263 258 253 250 251 252 253 253 254 257 261 264 267 271 277 282 285 281 281 287 296 294 289 285 286 292 295 296 297 300 302 304 306 304 303 301 299 299 299 299 298 298 299 299 299 299 300 300 300 300 300 300 300 299 298 298 297 296 295 294 293 292 291 291 290 290 290 289 288 287 285 283 281
285 284 283 281 280 278 275 272 269 267 266 265 263 259 254 249 247 247 247 248 249 251 255 259 263 265 265 264 263 264 269 275 282 293 300 297 291 289 291 292 292 294 295 294 291 288 295 299 300 301 301 301 299 299 298 298 298 298 299 299 298 298 299 300 300 300 299 299 298 297 297 296 295 294 293 292 291 290 289 289 288 287 285 283 281 280
282 282 281 280 279 276 273 269 266 264 263 263 261 258 253 250 248 247 248 249 250 251 254 258 261 264 264 263 262 263 267 271 276 284 291 291 288 287 289 289 290 292 294 292 287 282 280 285 293 298 300 299 298 298 298 298 298 298 298 298 298 298 299 300 301 300 300 299 298 297 297 296 295 294 293 292 291 290 289 288 287 286 283 281 280 278
281 280 279 278 276 274 271 268 265 262 261 261 260 259 257 255 253 253 253 252 252 252 252 255 258 261 264 265 266 266 268 270 273 279 285 285 285 285 288 289 290 291 294 293 290 286 283 284 289 294 298 298 298 297 297 298 298 298 298 297 297 298 299 300 300 300 299 298 297 296 295 295 294 293 293 292 291 290 289 288 287 285 283 281 280 278
282 280 278 276 275 273 271 268 265 263 263 263 264 263 262 261 260 258 258 257 256 254 254 254 255 257 261 264 267 268 270 270 273 277 281 284 285 287 288 287 288 289 291 290 290 289 288 287 289 292 295 297 298 297 297 297 298 299 299 298 297 297 298 298 299 299 298 297 296 295 294 293 293 292 292 291 290 290 289 288 288 286 285 283 281 279
281 280 279 277 276 274 272 271 269 269 268 269 269 269 268 266 265 264 262 261 260 258 257 257 256 256 257 259 262 265 268 271 274 276 278 280 282 284 285 284 284 286 287 287 287 287 288 289 290 291 292 294 295 297 298 300 301 301 300 299 298 297 297 297 297 297 296 295 294 293 292 292 292 291 291 291 291 290 290 289 288 287 285 283 281 279
279 280 281 279 278 276 274 274 274 274 274 275 275 274 273 272 271 270 268 266 264 263 263 262 261 259 258 258 259 262 266 270 273 274 274 274 275 276 278 279 280 281 281 281 283 284 286 288 289 290 290 289 291 295 299 302 303 302 300 300 299 298 297 297 296 295 294 293 292 291 291 291 291 291 291 291 291 290 289 288 287 286 284 283 281 279
279 281 282 281 279 277 276 278 278 278 279 279 279 278 278 276 275 273 272 271 269 268 266 266 265 264 263 262 262 264 266 269 271 272 272 271 271 271 272 274 276 276 274 274 275 278 281 284 287 289 289 289 289 291 295 299 301 301 300 300 299 298 297 296 296 295 294 293 292 292 291 291 291 290 290 290 290 289 287 286 285 285 283 282 281 280
279 280 281 281 280 280 280 280 281 282 282 282 282 281 281 279 278 277 275 274 272 271 269 268 268 267 268 267 267 267 268 269 271 272 273 272 271 269 269 269 271 273 272 271 270 271 272 275 278 281 285 288 290 292 293 295 296 297 299 301 300 299 297 297 297 296 295 294 293 292 291 290 289 288 288 288 287 286 285 284 284 284 282 281 281 281
279 279 279 279 281 282 282 283 285 286 286 286 285 285 283 283 282 281 279 277 275 274 272 272 271 271 271 271 270 270 270 271 273 275 275 275 273 271 267 266 267 270 271 270 268 266 266 268 271 275 278 282 286 289 291 292 293 294 297 299 299 298 298 298 298 297 295 293 291 290 290 289 289 288 287 286 285 283 282 282 282 282 281 280 280 280
279 279 280 282 285 286 287 287 288 289 289 289 288 286 285 285 285 285 284 282 280 280 279 278 277 277 277 276 274 273 273 274 276 277 278 278 277 275 271 267 266 267 268 268 267 265 265 266 269 272 275 277 281 284 286 288 289 291 292 292 292 294 296 296 296 295 294 293 291 290 289 290 289 288 287 285 284 282 281 280 280 280 279 279 277 276
280 280 282 286 290 292 292 292 291 291 291 289 287 285 285 286 286 287 287 287 286 285 284 283 283 284 283 281 279 277 276 277 278 279 280 280 280 278 274 269 267 266 266 267 267 266 266 267 268 270 273 275 279 282 284 285 287 288 287 287 289 292 294 295 294 294 293 292 291 291 289 289 288 287 285 283 282 280 279 277 277 277 276 275 273 271
281 282 285 290 293 294 293 293 293 292 291 290 288 287 287 286 286 286 287 287 287 288 287 286 286 286 286 286 285 285 283 281 281 281 280 279 279 278 275 272 268 266 265 265 266 267 268 268 268 268 270 273 275 277 281 284 286 286 285 285 287 290 292 293 293 294 293 291 290 289 288 286 285 283 282 281 280 279 277 276 277 277 274 272 271 270
283 287 291 293 294 295 294 294 293 293 293 292 291 289 288 287 286 285 286 286 287 288 289 289 289 289 287 287 288 290 290 288 286 284 281 278 277 276 276 273 270 267 264 262 262 266 271 272 271 270 271 272 273 275 278 281 283 284 284 284 284 283 282 285 289 291 291 289 288 286 285 284 283 282 281 280 279 278 276 275 275 275 273 271 270 269
287 292 295 294 295 295 295 295 295 295 294 293 291 290 289 287 286 286 285 286 287 289 289 290 291 291 288 288 290 293 294 294 292 289 286 283 280 278 276 274 271 268 265 262 261 262 266 270 273 275 275 274 273 272 274 277 280 281 282 282 281 280 279 281 283 285 286 286 286 285 284 283 283 282 281 280 279 278 276 275 274 274 273 272 271 269
291 294 294 293 292 293 294 295 296 296 295 293 292 290 289 289 288 286 285 285 286 288 288 288 288 287 286 289 291 294 295 295 295 294 291 290 287 284 280 276 273 270 267 265 264 263 263 266 270 275 277 277 275 273 272 274 276 278 280 281 281 280 280 281 281 282 282 283 284 284 284 284 283 282 280 279 279 279 278 277 275 275 274 274 272 270
291 291 292 292 292 293 294 296 296 296 295 294 294 293 291 290 290 290 287 285 285 285 287 287 285 282 283 286 289 291 292 294 295 295 294 294 291 289 285 282 278 274 271 269 267 266 265 266 268 270 273 276 277 277 276 275 275 275 277 279 280 280 280 280 281 281 282 282 282 284 285 284 284 282 281 280 281 282 281 280 278 277 276 275 274 272
288 288 289 291 291 292 294 296 297 297 295 295 296 295 295 293 292 291 289 288 287 286 286 287 285 283 283 284 285 287 288 290 292 293 294 295 294 292 290 287 284 280 277 274 272 270 269 268 268 268 268 269 272 275 277 277 275 275 275 277 277 277 278 279 281 282 283 282 282 283 284 283 282 282 283 284 285 285 284 284 282 280 278 276 276 275
285 286 287 288 289 291 294 296 297 298 296 298 298 298 297 296 294 292 290 289 288 286 284 283 283 283 283 284 285 286 287 288 290 291 293 294 294 294 292 291 289 287 285 282 278 276 274 273 270 267 264 263 265 268 272 274 275 275 274 275 275 276 277 279 282 284 285 285 285 286 286 285 283 284 285 285 286 286 286 286 285 284 281 279 278 276
283 283 285 287 288 291 294 296 297 297 297 298 299 298 298 297 295 292 289 287 285 282 280 279 279 281 282 284 285 286 287 288 289 289 290 292 293 294 293 292 292 292 291 288 286 284 282 281 279 275 269 263 262 263 266 271 274 276 276 275 276 277 279 281 284 286 288 289 289 290 290 289 288 287 287 286 285 286 287 287 287 286 285 283 281 278
283 284 286 288 290 291 292 294 295 295 294 295 296 296 296 296 294 292 289 286 283 280 279 278 277 277 280 282 283 284 286 286 286 287 288 291 292 292 292 292 292 292 292 291 290 289 289 288 287 285 282 274 267 263 263 268 274 278 280 280 280 281 283 284 286 288 290 291 292 292 292 291 290 289 286 285 284 285 287 288 289 288 287 286 284 281
Height
805 806 807 808 808 809 809 810 811 812 812 812 812 812 811 811 811 811 810 810 809 809 808 807 806 805 805 804 804 804 804 804 804 804 804 804 804 803 803 802 801 801 800 799 799 798 798 797 797 797 796 796 796 796 796 796 796 796 795 795 795 794 794 794 793 793 792 792 791 791 791 790 790 790 790 789 789 789 789 789 789 789 788 788 788 788
804 805 806 807 807 808 808 809 810 811 811 811 811 811 810 810 810 809 809 809 808 807 807 806 805 804 803 802 802 802 802 802 803 803 803 802 802 802 801 800 800 799 798 798 797 796 796 795 795 795 795 795 795 795 795 794 794 794 794 794 793 793 792 792 791 791 791 790 790 789 789 789 789 789 788 788 788 787 787 787 787 787 787 786 786 786
804 805 806 806 807 807 808 809 809 809 810 810 810 810 810 809 809 808 808 807 807 806 805 804 804 803 802 801 801 801 801 801 801 801 801 801 800 800 799 799 798 797 797 796 795 794 794 794 794 794 794 793 793 793 793 793 793 793 792 792 791 791 791 790 790 789 789 789 788 788 788 787 787 787 786 786 786 786 785 785 785 785 784 784 784 784
804 805 805 806 806 807 807 808 808 809 809 809 809 809 809 808 808 807 806 806 805 804 804 803 802 801 801 800 800 800 800 800 800 800 799 799 799 799 798 797 796 796 795 794 794 793 793 793 792 792 792 792 792 792 792 791 791 791 791 790 790 789 789 789 788 788 787 787 786 786 786 785 785 785 785 784 784 784 784 784 783 783 783 782 782 782
804 804 805 805 806 806 807 807 808 808 808 808 808 808 807 807 806 806 805 804 804 804 803 802 801 800 800 799 799 799 799 799 799 799 798 798 797 797 796 795 795 794 793 793 792 792 791 791 791 791 791 790 790 790 790 790 790 789 789 789 788 788 787 787 786 786 785 785 785 784 784 784 784 783 783 783 782 782 782 781 781 781 781 780 780 780
803 804 804 805 805 806 806 807 807 807 807 807 807 806 806 805 805 804 804 804 803 802 802 801 800 799 799 799 798 798 798 798 797 797 797 796 796 795 794 794 793 793 792 791 791 790 790 790 789 789 789 789 789 789 789 788 788 788 787 787 786 786 786 785 785 784 784 783 783 783 782 782 782 781 781 781 780 780 780 779 779 779 779 778 778 778
803 804 804 804 805 805 805 806 806 806 806 806 805 805 805 804 804 804 803 803 802 802 801 800 799 799 798 798 797 797 797 796 796 796 795 795 794 794 793 793 792 791 791 790 789 789 789 789 788 788 788 788 788 787 787 787 786 786 785 785 785 784 784 783 783 782 782 781 781 781 780 780 780 779 779 779 779 778 778 777 777 777 776 776 776 775
803 803 804 804 804 804 805 805 805 805 805 805 804 804 804 803 803 803 802 802 801 801 800 799 799 798 798 797 797 796 796 795 795 794 794 794 793 792 792 791 790 790 789 789 788 788 787 787 787 787 786 786 786 786 785 785 785 784 784 783 783 782 782 781 781 780 780 779 779 779 779 778 778 778 777 777 776 776 776 775 775 774 774 774 774 773
802 803 803 803 804 804 804 804 804 804 804 804 803 803 803 802 802 802 801 801 800 800 799 799 798 797 797 797 796 796 795 794 794 793 793 792 791 791 790 790 789 789 788 787 787 787 786 786 786 785 785 785 784 784 784 784 783 783 782 782 781 780 780 779 779 779 778 778 778 777 777 776 776 775 775 775 774 774 774 773 773 772 772 772 771 771
802 802 802 802 803 803 803 803 803 803 803 803 802 802 802 802 801 801 801 800 800 799 799 799 798 797 796 796 795 795 794 794 793 793 792 791 790 790 789 789 788 787 787 786 786 785 785 785 784 784 784 783 783 783 782 782 781 781 780 780 779 779 778 778 777 777 777 776 776 775 775 774 774 774 773 773 772 772 771 771 770 770 769 769 769 769
801 801 801 801 801 802 802 802 802 802 802 802 801 801 801 801 801 801 800 799 799 799 799 798 798 797 796 795 794 794 793 793 792 791 791 790 790 789 789 788 787 787 786 785 785 784 784 784 783 783 782 782 781 781 780 780 779 779 778 778 777 777 776 776 776 775 775 774 774 774 773 773 772 772 771 770 770 769 769 769 768 768 767 767 766 766
800 800 800 800 800 801 801 801 801 801 801 801 801 800 800 800 800 800 800 799 799 799 798 797 797 796 795 794 794 793 792 792 791 790 790 789 789 788 788 787 786 786 785 784 784 783 783 782 782 781 781 780 779 779 779 778 778 777 777 776 776 775 775 774 774 774 773 773 772 772 771 770 770 769 769 768 768 767 767 766 766 765 765 764 764 764
799 799 799 799 800 800 800 800 800 800 800 800 800 800 800 800 800 800 800 799 799 798 797 797 796 795 795 794 793 792 792 791 790 789 789 789 788 787 787 786 785 785 784 783 782 782 781 781 780 779 779 778 778 777 777 776 776 776 775 775 774 774 774 773 773 772 771 771 770 770 769 769 768 767 767 766 765 765 764 764 763 763 763 762 762 761
798 798 799 799 799 799 799 799 799 799 799 799 799 799 799 799 800 799 799 799 798 798 797 796 795 794 794 793 793 792 791 790 789 789 788 788 787 787 786 785 784 784 783 782 781 780 780 779 779 778 777 777 776 776 775 775 774 774 774 773 773 772 772 771 771 770 769 769 768 768 767 766 766 765 764 764 763 763 762 762 761 761 760 760 759 759
797 798 798 798 798 798 798 798 798 798 798 799 799 799 799 799 799 799 799 798 797 797 796 795 794 794 793 793 792 791 791 790 789 788 788 787 787 786 785 785 784 783 782 781 780 779 778 778 777 776 775 775 774 774 774 774 773 773 772 772 771 771 770 769 769 768 768 767 766 765 765 764 764 763 762 762 761 760 760 759 759 758 758 757 757 757
797 797 797 797 798 798 798 798 798 798 798 799 799 799 799 799 799 798 798 797 797 796 796 795 794 793 792 792 791 791 790 790 789 788 787 786 786 785 785 784 783 782 781 780 779 778 777 776 775 775 774 774 773 773 772 772 771 771 770 770 769 769 768 767 767 766 765 765 764 763 763 762 761 761 760 759 759 758 758 757 756 756 755 755 755 754
797 797 797 797 797 797 797 798 798 798 798 798 798 798 798 798 798 798 798 797 797 796 796 795 794 793 791 791 790 790 790 789 789 788 787 786 785 784 784 783 782 781 779 778 777 776 776 775 774 773 773 772 772 771 771 770 770 769 769 768 767 767 766 765 765 764 764 763 762 761 760 760 759 758 758 757 756 756 755 755 754 754 753 753 752 752
796 796 797 797 797 797 797 798 798 798 798 798 798 798 798 798 798 798 797 797 797 796 796 795 794 793 792 791 790 790 790 789 789 788 787 785 784 783 783 782 781 780 778 777 776 775 774 774 773 772 771 771 770 770 769 769 768 767 767 766 765 765 764 764 763 762 761 760 760 759 758 758 757 756 755 755 754 754 753 752 752 751 751 750 750 750
796 796 797 797 797 797 797 797 797 797 797 797 797 797 797 797 797 797 797 797 796 796 795 795 794 793 792 791 790 789 789 789 789 788 786 784 783 782 782 781 780 779 777 776 775 774 773 772 771 771 770 769 769 768 767 767 766 765 765 764 764 763 762 761 760 760 759 758 758 757 756 755 755 754 753 753 752 751 751 750 749 749 749 748 748 747
796 796 797 797 796 796 796 796 797 797 797 797 797 797 797 797 797 797 796 796 796 795 795 794 793 792 791 790 789 789 789 789 788 787 786 784 782 781 780 780 779 778 776 774 774 773 772 771 770 769 769 768 767 766 766 765 764 764 763 762 761 760 760 759 758 758 757 756 755 754 754 753 753 752 751 750 750 749 749 748 747 747 746 746 745 745
796 796 796 796 796 796 796 796 796 796 797 797 797 797 797 797 796 796 796 795 795 794 794 793 792 791 791 790 789 789 789 789 788 787 785 783 781 779 779 779 778 777 775 773 772 772 771 770 769 768 767 766 765 765 764 763 762 762 761 760 759 758 758 757 756 755 754 754 753 753 752 751 750 750 749 748 748 747 746 746 745 744 744 743 743 742
795 795 795 795 795 795 795 796 796 796 796 796 796 796 796 796 796 795 795 794 794 794 793 792 791 790 790 789 789 788 788 788 788 787 785 782 780 778 778 778 777 776 774 772 771 770 769 769 768 767 766 765 764 763 762 761 760 759 759 758 757 756 755 755 754 753 752 752 751 750 749 749 748 747 747 746 745 745 744 743 743 742 741 741 740 740
795 795 795 795 795 795 795 795 795 795 795 796 796 796 796 795 795 794 794 794 793 793 792 791 790 790 789 789 788 787 787 787 787 786 784 782 779 777 777 777 776 775 773 771 770 769 769 767 766 765 764 763 762 761 760 759 759 758 757 756 755 754 753 753 752 751 750 749 749 748 747 747 746 745 744 744 743 742 742 741 740 739 739 739 738 738
794 794 794 794 794 794 794 794 794 795 795 795 795 795 795 794 794 794 793 793 792 792 791 790 790 789 788 787 787 786 786 785 785 785 784 781 779 777 776 776 775 774 772 770 769 769 767 766 764 764 763 761 760 759 758 757 756 755 754 754 753 752 751 751 750 749 748 748 747 746 745 744 744 743 742 741 741 740 739 739 738 737 737 736 736 735
794 794 794 794 794 794 794 794 794 794 794 794 794 794 794 794 793 793 793 792 792 791 791 790 789 788 786 786 785 785 784 784 784 784 783 780 778 776 776 775 775 773 771 769 769 768 766 765 763 762 761 759 759 757 756 755 754 754 753 752 751 750 750 749 748 747 746 745 745 744 743 742 741 741 740 739 739 738 737 736 736 735 734 734 733 733
793 793 793 793 793 793 793 793 793 793 793 793 793 793 793 793 792 792 792 791 791 791 790 789 788 786 785 785 784 784 783 783 783 783 782 780 778 775 775 774 774 773 770 769 768 767 766 764 762 760 759 758 757 755 754 754 753 752 751 750 750 749 748 747 746 745 744 743 743 742 741 740 739 739 738 737 736 736 735 734 734 733 732 732 731 730
791 791 791 792 792 792 792 792 792 792 792 792 792 792 792 792 792 791 791 790 790 790 789 788 787 785 784 784 784 783 782 782 782 781 781 779 778 775 774 774 773 772 770 768 767 766 765 763 761 759 758 756 755 754 753 752 752 751 750 749 748 747 746 745 744 743 742 741 740 739 739 738 737 736 736 735 734 734 733 732 732 731 730 729 729 728
790 790 790 790 790 790 790 790 790 790 790 791 791 791 791 791 791 790 789 789 789 789 788 787 786 785 784 783 782 782 782 781 781 780 780 779 777 775 774 773 773 772 770 768 766 764 764 762 760 758 756 755 754 753 752 751 750 749 748 747 746 745 744 743 742 741 740 739 739 738 737 736 735 734 734 733 733 732 731 730 730 729 728 728 727 725
789 789 789 789 789 789 789 789 789 789 789 789 789 789 790 790 789 789 788 788 788 788 787 786 785 785 784 783 782 781 780 780 779 779 779 778 776 774 773 773 772 771 770 768 765 763 761 760 759 757 755 754 753 752 751 749 749 747 746 745 744 743 742 741 740 739 739 738 737 736 735 734 734 733 732 731 731 730 729 729 728 727 726 725 724 724
789 789 789 789 789 788 788 788 788 788 788 788 788 788 788 788 788 787 787 787 787 787 786 785 785 784 784 783 781 780 779 778 778 778 778 777 775 774 773 772 772 771 770 769 765 762 759 757 757 756 755 754 752 751 749 748 747 745 744 743 742 741 740 739 739 738 737 736 735 734 733 733 732 731 730 729 729 728 727 727 726 726 724 724 723 722
789 789 789 788 788 788 788 787 787 787 787 787 787 787 786 786 786 786 786 786 786 786 785 784 784 784 783 783 782 780 778 777 777 778 777 776 775 773 773 772 771 770 770 770 768 764 759 755 754 754 754 753 751 749 748 747 746 744 743 742 740 739 738 738 737 736 735 734 733 733 732 731 730 729 729 728 727 726 726 725 724 724 723 722 721 720
789 788 788 788 787 787 787 787 786 786 786 786 785 785 785 785 785 785 785 785 785 784 784 784 783 783 782 782 781 779 777 777 777 777 777 776 774 773 772 772 771 770 769 769 769 767 762 757 753 752 752 751 750 748 747 746 745 744 743 741 739 738 737 736 736 734 734 733 732 731 730 729 728 728 727 726 725 724 724 723 723 722 721 720 719 718
788 788 787 787 787 786 786 786 785 785 785 785 785 784 784 784 784 784 784 784 784 784 783 783 782 782 781 780 779 778 777 776 776 776 776 776 774 773 772 771 770 769 768 768 768 767 764 759 755 752 751 750 749 747 746 745 744 743 742 740 739 737 736 735 734 733 732 731 730 729 728 727 726 725 725 724 723 722 722 721 721 720 719 718 717 716
787 787 787 786 786 786 785 785 785 785 784 784 784 784 784 784 783 783 783 783 783 782 782 782 781 781 780 779 778 777 775 775 775 775 776 775 774 772 771 770 769 769 768 767 766 764 763 760 757 754 751 748 747 746 745 744 743 742 741 739 738 736 735 734 733 732 731 729 728 727 726 725 724 724 723 722 721 720 719 719 719 718 718 717 716 714
787 786 786 786 785 785 785 784 784 784 784 784 783 783 783 783 782 782 782 782 781 781 781 780 780 780 779 778 777 776 774 774 774 775 775 774 773 772 770 769 769 768 767 766 764 763 761 759 757 755 752 748 745 744 744 743 742 741 739 739 737 736 734 733 732 731 729 728 727 725 724 723 722 721 720 720 719 718 718 717 717 716 715 715 714 713
786 786 785 785 785 784 784 784 784 783 783 783 783 782 782 782 781 781 781 780 780 780 779 779 779 778 778 777 776 774 773 773 773 773 774 773 772 771 770 769 768 767 767 765 764 763 761 758 756 754 753 749 746 743 741 741 741 740 738 737 736 734 733 732 731 729 728 726 725 724 723 722 721 720 719 718 717 717 716 715 714 714 713 713 712 711
785 785 785 784 784 784 784 783 783 783 783 782 782 782 781 781 780 780 779 779 779 778 778 777 777 776 776 775 774 773 772 771 771 772 772 771 771 770 769 767 766 766 766 764 763 761 760 758 755 753 751 749 746 743 741 739 739 738 737 735 734 733 731 730 729 728 727 725 724 722 721 720 719 718 717 716 715 715 714 713 712 711 711 710 709 709
785 785 784 784 784 783 783 783 782 782 782 781 781 781 780 780 779 779 778 778 777 777 776 776 775 774 774 773 773 772 771 770 769 769 769 769 769 769 768 766 765 764 764 763 762 761 759 757 755 752 750 748 746 744 742 740 739 737 735 734 733 731 729 728 727 726 725 724 722 721 720 719 718 717 715 714 714 712 711 710 709 709 708 708 707 706
784 784 784 784 783 783 782 782 782 781 781 781 780 780 779 779 778 778 777 777 776 775 775 774 774 773 772 771 771 770 769 769 768 767 767 767 767 767 766 765 763 762 762 761 761 759 758 756 754 752 749 747 744 742 741 740 739 736 734 732 730 729 727 727 726 725 724 722 721 719 718 717 716 715 714 712 711 710 709 708 707 707 706 705 704 704
784 784 783 783 783 782 782 781 781 781 780 780 779 779 778 778 777 777 776 775 775 774 774 773 772 771 771 770 769 769 768 767 766 765 765 765 764 764 764 763 762 761 760 759 759 758 756 755 753 751 749 747 744 742 740 739 737 736 734 732 729 726 725 724 724 723 722 721 719 718 716 715 714 713 712 711 710 709 708 706 705 704 704 704 703 701
784 783 783 782 782 782 781 781 780 780 779 779 779 778 777 777 776 776 775 774 774 773 773 772 771 770 769 769 768 767 766 765 764 764 763 763 762 762 762 761 760 759 758 757 756 755 754 753 751 749 748 746 744 742 739 737 736 735 734 732 729 725 724 723 722 721 720 719 717 716 715 714 712 711 710 709 708 707 706 705 704 703 702 702 701 700
783 783 782 782 781 781 780 780 780 779 779 778 778 777 776 776 775 775 774 774 773 772 772 771 770 769 768 767 766 765 764 764 763 762 761 761 760 760 759 759 758 757 756 755 754 753 752 751 749 748 746 744 743 740 738 735 734 734 733 731 728 725 723 720 719 719 719 717 715 714 714 712 710 709 708 706 705 704 703 703 702 701 700 699 698 697
783 782 782 781 781 780 780 779 779 779 778 777 777 776 776 775 775 774 774 773 772 771 771 770 769 769 767 766 764 764 763 762 762 761 760 760 759 759 758 757 756 755 755 754 752 751 749 749 748 746 744 743 742 739 736 734 732 731 730 729 728 726 722 719 717 717 717 715 714 713 711 710 708 707 705 704 703 701 700 700 699 698 698 697 695 694
782 781 781 780 780 779 779 779 778 778 777 777 776 775 775 774 774 774 773 772 771 771 770 769 769 768 766 765 763 762 761 761 760 760 759 759 758 757 757 756 755 754 753 752 751 749 747 746 745 744 743 742 740 738 735 733 731 729 728 727 727 725 722 719 716 715 714 713 711 710 709 708 706 704 703 701 700 699 698 697 696 695 694 694 693 692
781 781 780 780 779 779 779 778 778 777 777 776 775 775 774 774 773 773 772 771 770 770 769 769 768 767 765 764 762 761 760 759 759 758 757 757 756 756 755 754 753 752 751 750 749 748 746 744 743 741 741 739 738 736 734 731 729 727 725 725 724 722 720 717 715 714 712 710 709 708 706 705 704 702 700 699 698 697 696 695 694 692 691 691 690 689
781 780 780 779 779 779 778 777 777 776 776 775 774 774 773 773 772 772 771 770 770 769 768 768 767 766 764 763 761 760 759 758 757 756 756 755 754 754 753 753 752 751 749 748 747 746 745 743 741 740 739 737 735 733 731 730 728 725 723 722 721 720 717 715 714 712 711 709 707 705 704 703 702 701 699 697 695 694 693 692 691 690 689 688 687 686
780 780 779 779 778 778 777 777 776 775 775 774 774 773 772 772 771 771 770 769 769 768 767 767 766 765 764 762 761 760 758 757 755 755 754 754 753 752 751 751 750 749 748 746 745 744 743 741 740 739 738 735 733 730 728 727 726 724 722 720 719 717 715 713 711 710 709 707 705 703 702 701 700 699 696 694 693 691 690 689 689 688 687 686 684 684
779 779 779 778 778 777 777 776 775 775 774 773 773 772 772 771 771 770 769 769 768 767 766 765 764 764 762 761 760 759 758 756 754 753 753 752 751 750 749 749 748 747 746 744 744 742 741 739 738 737 736 734 731 728 725 724 723 722 720 719 717 715 713 710 708 707 706 705 703 702 701 700 698 696 694 692 690 689 687 687 686 685 684 684 682 681
779 779 778 778 777 776 776 775 775 774 774 773 772 771 771 770 770 769 768 767 767 766 765 764 763 762 761 759 758 757 756 755 754 752 751 750 749 749 748 747 746 745 744 742 741 740 738 737 735 734 734 732 730 727 723 721 720 719 718 716 715 713 710 708 706 705 704 703 701 700 699 698 697 695 693 691 689 686 684 684 683 682 682 681 680 679
778 778 778 777 776 776 775 775 774 774 773 772 771 770 769 769 769 768 767 766 766 765 764 763 762 761 759 758 757 756 755 754 752 751 750 749 748 747 746 745 744 743 742 740 739 738 736 734 732 731 730 729 728 725 722 719 718 717 716 714 713 711 709 706 704 703 702 701 699 698 697 696 695 694 692 690 687 684 682 681 680 679 679 679 678 676
778 777 777 776 776 775 774 774 773 773 772 771 770 769 769 768 767 766 766 765 764 764 763 762 761 759 758 757 755 754 754 752 751 750 749 748 747 746 745 744 743 742 740 739 737 735 734 732 729 727 725 725 725 724 721 719 716 714 713 711 710 709 707 705 703 701 700 699 698 697 695 694 693 691 690 689 686 683 680 678 677 676 676 676 675 674